Location: Bruderhein
(53.8035°N, 112.9265°W)
Time: 01:21:38
(UTC+00:00)

KKS-1 - Pass Details

Date: 05 April 2023
Orbit: 633 x 644 km, 98.2° (Epoch: 31 May)

Event Time Altitude Azimuth Distance (km) Brightness Sun altitude
Rises 05:58:18 0° 18° (NNE) 2,945 ? -26.9°
Reaches altitude 10° 06:00:34 10° 23° (NNE) 2,032 ? -27.0°
Enters shadow 06:03:17 34° 42° (NE) 1,048 ? -27.2°
